Weather History for Millville, NJ

Change the Weather History Date:

Saturday, August 23, 2014

  Actual Average Record
Temperature  
Mean Temperature 68 °F -  
Max Temperature 77 °F 82 °F 91 °F (2006)
Min Temperature 62 °F 63 °F 48 °F (1952)
Cooling Degree Days 4    
Growing Degree Days 18 (Base 50)    
Moisture  
Dew Point 62 °F    
Average Humidity 79    
Maximum Humidity 96    
Minimum Humidity 62    
Precipitation  
Precipitation 0.01 in - - ()
Sea Level Pressure  
Sea Level Pressure 30.05 in    
Wind  
Wind Speed 7 mph (ENE)    
Max Wind Speed 14 mph    
Max Gust Speed 22 mph    
Visibility 10 miles    
Events      
Averages and records for this station are not official NWS values.
T = Trace of Precipitation, MM = Missing Value Source: NWS Daily Summary

Daily Weather History Graph

Daily Weather History Graph

Search for Another Location

Airport:

Trip Planner

Search our weather history database for the weather conditions in past years. The results will help you decide how hot, cold, wet, or windy it might be!

Date:

Astronomy

Aug. 23, 2014 Rise Set
Actual Time 6:20 AM EDT 7:44 PM EDT
Civil Twilight 5:52 AM EDT 8:12 PM EDT
Nautical Twilight 5:18 AM EDT 8:46 PM EDT
Astronomical Twilight 4:43 AM EDT 9:21 PM EDT
Moon 4:34 AM EDT (8/23) 6:27 PM EDT (8/23)
Length of Visible Light 14h 20m
Length of Day
13h 24m
Waning Crescent, 3% of the Moon is Illuminated
Aug 23
Waning Crescent
Aug 25
New
Sep 2
First Quarter
Sep 8
Full
Sep 15
Last Quarter

Hourly Weather History & Observations

Time (EDT) Temp. Dew Point Humidity Pressure Visibility Wind Dir Wind Speed Gust Speed Precip Events Conditions
12:54 AM 66.0 °F 62.1 °F 87% 30.02 in 10.0 mi NE 5.8 mph - N/A   Clear
1:54 AM 64.9 °F 62.1 °F 90% 30.00 in 10.0 mi ENE 4.6 mph - N/A   Clear
2:54 AM 64.9 °F 62.1 °F 90% 30.00 in 10.0 mi NNE 4.6 mph - N/A   Clear
3:54 AM 63.0 °F 61.0 °F 93% 30.00 in 10.0 mi WNW 3.5 mph - N/A   Clear
4:37 AM 63.0 °F 61.0 °F 93% 30.00 in 10.0 mi Calm Calm - N/A   Scattered Clouds
4:45 AM 62.1 °F 61.0 °F 96% 30.01 in 10.0 mi Calm Calm - N/A   Mostly Cloudy
5:54 AM 64.9 °F 62.1 °F 90% 30.01 in 10.0 mi NNE 4.6 mph - N/A   Scattered Clouds
7:37 AM 66.9 °F 63.0 °F 87% 30.03 in 10.0 mi NE 8.1 mph - N/A   Overcast
7:54 AM 68.0 °F 63.0 °F 84% 30.04 in 10.0 mi NE 8.1 mph - N/A   Mostly Cloudy
8:54 AM 71.1 °F 64.0 °F 78% 30.03 in 10.0 mi East 12.7 mph - N/A   Clear
9:54 AM 73.9 °F 64.0 °F 71% 30.04 in 10.0 mi East 9.2 mph - N/A   Partly Cloudy
10:54 AM 75.0 °F 61.0 °F 62% 30.05 in 10.0 mi East 12.7 mph - N/A   Mostly Cloudy
11:54 AM 73.9 °F 62.1 °F 66% 30.05 in 10.0 mi East 11.5 mph - N/A   Overcast
12:54 PM 75.0 °F 62.1 °F 64% 30.04 in 10.0 mi East 13.8 mph - N/A   Overcast
1:54 PM 73.9 °F 62.1 °F 66% 30.05 in 10.0 mi East 13.8 mph - N/A   Overcast
2:54 PM 73.0 °F 62.1 °F 68% 30.06 in 10.0 mi East 10.4 mph - N/A   Overcast
3:54 PM 72.0 °F 62.1 °F 71% 30.06 in 10.0 mi East 10.4 mph - N/A   Overcast
4:54 PM 73.0 °F 62.1 °F 68% 30.06 in 10.0 mi East 11.5 mph 21.9 mph N/A   Overcast
5:14 PM 72.0 °F 61.0 °F 68% 30.06 in 10.0 mi East 10.4 mph - N/A   Overcast
5:30 PM 71.1 °F 61.0 °F 70% 30.07 in 10.0 mi East 10.4 mph - N/A   Overcast
5:54 PM 71.1 °F 61.0 °F 70% 30.07 in 10.0 mi ENE 6.9 mph - N/A   Overcast
6:54 PM 70.0 °F 62.1 °F 76% 30.06 in 10.0 mi ENE 9.2 mph - N/A   Overcast
7:54 PM 69.1 °F 61.0 °F 75% 30.07 in 10.0 mi ENE 6.9 mph - N/A   Mostly Cloudy
8:54 PM 66.9 °F 63.0 °F 87% 30.09 in 10.0 mi NE 4.6 mph - 0.01 in   Scattered Clouds
9:54 PM 66.0 °F 62.1 °F 87% 30.09 in 10.0 mi NE 6.9 mph - N/A   Scattered Clouds
10:54 PM 64.9 °F 62.1 °F 90% 30.09 in 10.0 mi NE 5.8 mph - N/A   Clear
11:54 PM 64.0 °F 61.0 °F 90% 30.10 in 10.0 mi NE 4.6 mph - N/A   Clear